Location: Newark
(36.2350°N, 59.6408°E)
Time: 22:17:27
(UTC+00:00)

ISS - Pass Details

Date: 22 November 2019
Orbit: 412 x 421 km, 51.6° (Epoch: 05 December)

Event Time Altitude Azimuth Distance (km) Brightness Sun altitude
Rises 14:17:16 0° 238° (WSW) 2,342 1.4 -17.6°
Reaches altitude 10° 14:19:23 10° 244° (WSW) 1,484 0.2 -18.0°
Maximum altitude 14:22:38 52° 322° (NW) 524 -3.2 -18.6°
Enters shadow 14:23:25 41° 9° (N) 621 -3.1 -18.8°
